GW0714 Weather Reports


Display with metric or nautical units.
time (UTC)temp
F
wind
direction
speed
MPH
gust
MPH
rain 1hr
in
rain 24hr
in
rain mn
in
humidity
%
barometer
mb
20260504231540 50 322 1.0 4.0 0.01 0.02 0.02 94 1014.7
20260504231031 50 5 1.0 4.0 0.01 0.02 0.02 94 1014.5
20260504230533 49 342 1.0 5.0 0.01 0.02 0.02 93 1014.9
20260504230045 50 0 1.0 5.0 0.01 0.02 0.02 94 1015.4
20260504225531 50 0 0.0 3.0 0.01 0.02 0.02 94 1015.6
20260504225030 50 0 0.0 4.0 0.01 0.02 0.02 94 1015.4
20260504224542 50 348 1.0 4.0 0.01 0.02 0.02 93 1015.0
20260504224034 50 25 1.0 4.0 0.01 0.02 0.02 94 1014.9
20260504223531 50 346 2.0 4.0 0.00 0.01 0.01 93 1015.0
20260504223040 50 350 1.0 4.0 0.00 0.01 0.01 93 1014.9
20260504222532 50 336 1.0 4.0 0.00 0.01 0.01 93 1015.0
20260504222035 50 333 1.0 4.0 0.01 0.01 0.01 93 1014.8
20260504221556 50 0 0.0 3.0 0.01 0.01 0.01 94 1015.1
20260504221029 49 0 0.0 4.0 0.01 0.01 0.01 93 1015.2
20260504220530 49 329 1.0 4.0 0.01 0.01 0.01 93 1015.2
20260504220038 49 329 1.0 3.0 0.01 0.01 0.01 92 1015.1
20260504215531 49 329 0.0 3.0 0.01 0.01 0.01 92 1015.2
20260504215032 50 0 0.0 4.0 0.01 0.01 0.01 93 1015.2
20260504214538 49 0 0.0 4.0 0.01 0.01 0.01 92 1015.1
20260504214029 50 325 1.0 4.0 0.01 0.01 0.01 92 1015.0
20260504213529 50 323 1.0 4.0 0.01 0.01 0.01 92 1015.1
20260504213045 50 325 1.0 4.0 0.01 0.01 0.01 92 1015.2
20260504212529 50 0 1.0 4.0 0.01 0.01 0.01 91 1015.1
20260504212027 50 321 1.0 4.0 0.00 0.00 0.00 91 1015.0
20260504211546 50 324 0.0 2.0 0.00 0.00 0.00 91 1015.4
20260504211029 50 0 0.0 2.0 0.00 0.00 0.00 91 1015.6
20260504210530 50 352 0.0 2.0 0.00 0.00 0.00 91 1015.4
20260504210046 50 0 0.0 3.0 0.00 0.00 0.00 90 1015.3
20260504205529 50 0 0.0 3.0 0.00 0.00 0.00 90 1015.3
20260504205031 50 0 0.0 2.0 0.00 0.00 0.00 90 1015.3
20260504204539 50 0 0.0 2.0 0.00 0.00 0.00 90 1015.2
20260504204029 50 0 0.0 1.0 0.00 0.00 0.00 90 1015.2
20260504203529 50 0 0.0 1.0 0.00 0.00 0.00 89 1015.1
20260504203038 50 0 0.0 1.0 0.00 0.00 0.00 87 1015.0
20260504202529 50 0 0.0 2.0 0.00 0.00 0.00 87 1015.2
20260504202027 50 0 0.0 2.0 0.00 0.00 0.00 86 1015.2
20260504201536 51 0 0.0 3.0 0.00 0.00 0.00 85 1015.1
20260504201029 51 352 1.0 4.0 0.00 0.00 0.00 84 1014.9
20260504200529 51 360 1.0 5.0 0.00 0.00 0.00 85 1015.0
20260504200043 51 331 2.0 5.0 0.00 0.00 0.00 83 1015.1
20260504195531 52 341 2.0 5.0 0.00 0.00 0.00 82 1015.2
20260504195028 52 329 0.0 4.0 0.00 0.00 0.00 82 1015.2
20260504194546 52 0 1.0 4.0 0.00 0.00 0.00 82 1015.2
20260504194028 52 339 2.0 4.0 0.00 0.00 0.00 82 1015.1
20260504193531 52 332 1.0 4.0 0.00 0.00 0.00 82 1015.1
20260504193045 52 331 0.0 3.0 0.00 0.00 0.00 82 1015.1
20260504192529 52 327 1.0 4.0 0.00 0.00 0.00 81 1015.2
20260504192030 52 327 1.0 5.0 0.00 0.00 0.00 80 1015.4
20260504191605 52 329 2.0 5.0 0.00 0.00 0.00 80 1015.5
20260504191029 52 333 1.0 5.0 0.00 0.00 0.00 80 1015.5
20260504190529 52 317 1.0 5.0 0.00 0.00 0.00 79 1015.5
20260504190039 52 336 2.0 5.0 0.00 0.00 0.00 80 1015.4
20260504185527 52 313 2.0 6.0 0.00 0.00 0.00 79 1015.5
20260504185029 52 21 2.0 8.0 0.00 0.00 0.00 81 1015.4
20260504184543 52 360 3.0 8.0 0.00 0.00 0.00 81 1015.4
20260504184029 52 22 4.0 8.0 0.00 0.00 0.00 84 1015.4
20260504183529 52 342 4.0 8.0 0.00 0.00 0.00 85 1015.3
20260504183040 52 352 2.0 9.0 0.00 0.00 0.00 85 1015.3
20260504182532 53 9 4.0 9.0 0.00 0.00 0.00 84 1015.3
20260504182029 53 24 3.0 6.0 0.00 0.00 0.00 81 1015.3
20260504181538 54 5 3.0 6.0 0.00 0.00 0.00 81 1015.3
20260504181029 54 33 3.0 6.0 0.00 0.00 0.00 80 1015.2
20260504180528 54 325 2.0 4.0 0.00 0.00 0.00 78 1015.2
20260504180038 54 341 2.0 5.0 0.00 0.00 0.00 77 1015.1
20260504175527 54 342 2.0 5.0 0.00 0.00 0.00 77 1014.9
20260504175031 53 336 0.0 4.0 0.00 0.00 0.00 77 1015.0
20260504174545 53 0 0.0 4.0 0.00 0.00 0.00 78 1014.9
20260504174031 53 0 1.0 4.0 0.00 0.00 0.00 78 1014.9
20260504173530 53 344 0.0 4.0 0.00 0.00 0.00 79 1014.9
20260504173044 53 352 1.0 5.0 0.00 0.00 0.00 79 1015.0
20260504172534 52 334 2.0 6.0 0.00 0.00 0.00 79 1015.0
20260504172031 52 318 2.0 6.0 0.00 0.00 0.00 79 1014.9
20260504171543 52 336 2.0 8.0 0.00 0.00 0.00 79 1014.8
20260504171032 52 344 3.0 8.0 0.00 0.00 0.00 80 1014.7
20260504170531 52 325 2.0 8.0 0.00 0.00 0.00 79 1014.8
20260504151031 51 0 1.0 4.0 0.00 0.00 0.00 84 1014.4
20260504150533 51 295 1.0 5.0 0.00 0.00 0.00 85 1014.3
20260504141033 49 0 0.0 2.0 0.00 0.00 0.00 87 1014.3
20260504140532 49 0 0.0 3.0 0.00 0.00 0.00 87 1014.3
20260504130532 49 314 2.0 5.0 0.00 0.00 0.00 87 1013.5
20260504110530 49 0 0.0 2.0 0.00 0.00 0.00 84 1013.5
20260504100531 50 0 0.0 2.0 0.00 0.00 0.00 84 1013.6
20260504081541 50 0 0.0 2.0 0.00 0.00 0.00 84 1013.9
20260504081032 50 0 0.0 2.0 0.00 0.00 0.00 83 1013.9
20260504080530 50 279 0.0 2.0 0.00 0.00 0.00 83 1013.9
20260504050529 55 0 0.0 3.0 0.00 0.00 0.00 76 1013.7
20260504045531 55 0 0.0 3.0 0.00 0.00 0.00 76 1013.5
20260504045031 55 0 0.0 4.0 0.00 0.00 0.00 75 1013.6
20260504044542 55 339 0.0 6.0 0.00 0.00 0.00 75 1013.6
20260504044031 55 340 2.0 6.0 0.00 0.00 0.00 75 1013.5
20260504043536 55 20 3.0 6.0 0.00 0.00 0.00 75 1013.5
20260504043043 56 0 1.0 5.0 0.00 0.00 0.00 75 1013.4
20260504042532 56 325 2.0 5.0 0.00 0.00 0.00 74 1013.4
20260504042030 56 5 1.0 5.0 0.00 0.00 0.00 75 1013.4
20260504041539 56 340 1.0 5.0 0.00 0.00 0.00 75 1013.3
20260504041028 56 341 0.0 5.0 0.00 0.00 0.00 75 1013.3
20260504040530 56 336 1.0 5.0 0.00 0.00 0.00 74 1013.3
20260504040040 56 38 1.0 4.0 0.00 0.00 0.00 74 1013.2
20260504035532 56 336 1.0 4.0 0.00 0.00 0.00 74 1013.2
20260504035029 57 352 1.0 4.0 0.00 0.00 0.00 74 1012.9
20260504034543 57 334 1.0 3.0 0.00 0.00 0.00 75 1012.9
20260504034029 57 11 0.0 4.0 0.00 0.00 0.00 75 1012.9
20260504033530 57 328 2.0 5.0 0.00 0.00 0.00 75 1012.8
20260504033054 57 24 1.0 5.0 0.00 0.00 0.00 74 1012.7
20260504032530 57 360 1.0 5.0 0.00 0.00 0.00 75 1012.7
20260504032032 57 352 2.0 5.0 0.00 0.00 0.00 75 1012.6
20260504031533 57 300 0.0 3.0 0.00 0.00 0.00 75 1012.5
20260504031030 57 0 0.0 3.0 0.00 0.00 0.00 74 1012.5
20260504030530 57 319 0.0 3.0 0.00 0.00 0.00 73 1012.5
20260504030049 57 338 1.0 3.0 0.00 0.00 0.00 74 1012.4
20260504025531 58 337 0.0 3.0 0.00 0.00 0.00 73 1012.4
20260504025031 58 315 1.0 3.0 0.00 0.00 0.00 73 1012.3
20260504024543 58 45 1.0 3.0 0.00 0.00 0.00 73 1012.2
20260504024028 58 323 1.0 3.0 0.00 0.00 0.00 73 1012.2
20260504023530 58 0 0.0 4.0 0.00 0.00 0.00 73 1012.2
20260504023037 58 0 0.0 4.0 0.00 0.00 0.00 72 1012.1
20260504022532 58 0 0.0 3.0 0.00 0.00 0.00 72 1012.1
20260504022030 58 0 1.0 3.0 0.00 0.00 0.00 72 1012.2
20260504021537 58 0 0.0 2.0 0.00 0.00 0.00 72 1012.0
20260504021030 58 0 0.0 2.0 0.00 0.00 0.00 72 1012.1
20260504020530 58 0 0.0 2.0 0.00 0.00 0.00 72 1012.1
20260504020044 58 329 0.0 2.0 0.00 0.00 0.00 72 1012.1
20260504015530 58 336 0.0 2.0 0.00 0.00 0.00 72 1012.1
20260504015033 58 321 0.0 2.0 0.00 0.00 0.00 73 1012.0
20260504014542 58 0 0.0 2.0 0.00 0.00 0.00 72 1012.0
20260504014032 58 0 0.0 3.0 0.00 0.00 0.00 72 1012.0
20260504013529 58 0 0.0 3.0 0.00 0.00 0.00 73 1012.0
20260504013042 58 0 0.0 3.0 0.00 0.00 0.00 73 1011.9
20260504012550 58 5 1.0 5.0 0.00 0.00 0.00 73 1011.9
20260504012032 58 344 3.0 8.0 0.00 0.00 0.00 74 1011.9
20260504011538 58 5 2.0 8.0 0.00 0.00 0.00 73 1011.9
20260504011034 58 334 2.0 8.0 0.00 0.00 0.00 73 1012.0
20260504010533 58 335 3.0 8.0 0.00 0.00 0.00 73 1012.1
20260504010037 58 345 4.0 8.0 0.00 0.00 0.00 73 1012.1
20260504005529 58 319 2.0 7.0 0.00 0.00 0.00 74 1012.0
20260504005029 58 68 1.0 5.0 0.00 0.00 0.00 74 1012.0
20260504004535 58 20 3.0 9.0 0.00 0.00 0.00 74 1012.0
20260504004028 58 14 4.0 9.0 0.00 0.00 0.00 74 1012.0
20260504003530 58 5 3.0 8.0 0.00 0.00 0.00 73 1012.0
20260504003042 58 329 3.0 7.0 0.00 0.00 0.00 73 1011.9
20260504002532 58 311 3.0 7.0 0.00 0.00 0.00 73 1011.9
20260504002029 58 344 0.0 5.0 0.00 0.00 0.00 74 1011.8
20260504001544 58 13 2.0 5.0 0.00 0.00 0.00 74 1011.8
20260504001031 58 336 1.0 4.0 0.00 0.00 0.00 74 1011.7
20260504000530 58 343 1.0 4.0 0.00 0.00 0.00 74 1011.7
20260504000101 58 321 0.0 3.0 0.00 0.00 0.00 73 1011.7
20260503235529 58 0 1.0 3.0 0.00 0.00 0.00 73 1011.9
20260503235032 58 327 1.0 3.0 0.00 0.00 0.00 74 1012.0
20260503234538 58 0 0.0 3.0 0.00 0.00 0.00 73 1012.0
20260503234031 58 0 2.0 3.0 0.00 0.00 0.00 73 1011.9
20260503233534 58 5 0.0 2.0 0.00 0.00 0.00 74 1012.1
20260503233040 58 0 0.0 3.0 0.00 0.00 0.00 74 1012.1
20260503232532 58 0 0.0 3.0 0.00 0.00 0.00 73 1012.2
20260503232032 58 327 0.0 3.0 0.00 0.00 0.00 73 1012.4